Regional Weather Roundup
Issued by NWS Charleston, SC

Home | Current Version | Previous Version | Text Only | Print | Product List | Glossary On
Versions: 1 2 3 4 5 6 7 8 9 10 11 12 13 14 15 16 17 18 19 20 21 22 23 24 25 26 27 28 29 30 31 32 33 34 35 36 37 38 39 40 41 42 43 44 45 46 47 48 49 50
000
ASUS42 KCHS 050027
RWRCHS

REGIONAL WEATHER ROUNDUP
NATIONAL WEATHER SERVICE CHARLESTON SC
700 PM EST SUN DEC 04 2016

NOTE: "FAIR" INDICATES FEW OR NO CLOUDS BELOW 12,000 FEET WITH NO
SIGNIFICANT WEATHER AND/OR OBSTRUCTIONS TO VISIBILITY.

NOT ALL STATIONS ARE QUALITY CONTROLLED. USE DATA WITH CAUTION...
ESPECIALLY DEWPOINT OBSERVATIONS.

SCZ027-030-031-034>040-042>050-050100-
...SOUTHEAST SOUTH CAROLINA...

CITY           SKY/WX    TMP DP  RH WIND       PRES   REMARKS
N CHARLESTON   CLOUDY    57  50  77 E10       30.06F
6HR MIN TEMP:  57; 6HR MAX TEMP:  61;

WATERFRONT PRK   N/A     57  54  89 NE12      30.07F
MOUNT PLEASANT CLOUDY    57  54  88 NE3       30.07F
JOHNS ISLAND   MOCLDY    59  55  88 NE9       30.05F
PINOPOLIS        N/A     50  43  76 E10       30.01F
MONCKS CORNER  CLOUDY    48  41  76 NE6       30.08F
SUMMERVILLE    CLOUDY    50  46  87 NE6       30.08F
BEAUFORT MCAS  CLOUDY    59  54  83 CALM      30.05F
6HR MIN TEMP:  59; 6HR MAX TEMP:  62; 6HR PCP: TRACE;

BEAUFORT ARPT  CLOUDY    59  55  88 NE7       30.05S
HILTON HEAD IS NOT AVBL
WALTERBORO     CLOUDY    54  52  94 NE6       30.08S
ALLENDALE      CLOUDY    50  48  93 VRB5      30.05F

...SOUTHERN MIDLANDS AND PEE DEE...

CITY           SKY/WX    TMP DP  RH WIND       PRES   REMARKS
GEORGETOWN     CLOUDY    54  50  87 E9        30.10F
KINGSTREE      CLOUDY    45  41  87 NE3       30.11F
ORANGEBURG     LGT RAIN  46  44  93 NE8       30.08F
6HR MIN TEMP:  46; 6HR MAX TEMP:  53; 6HR PCP:  0.03;

BARNWELL       NOT AVBL
AIKEN          DRIZZLE   43  41  93 NE7       30.10S
MANNING        NOT AVBL
COLUMBIA       LGT RAIN  46  43  89 E8        30.09F
6HR MIN TEMP:  46; 6HR MAX TEMP:  49; 6HR PCP:  0.06;

SUMTER         DRIZZLE   45  43  93 E8        30.09F
6HR MIN TEMP:  45; 6HR MAX TEMP:  49; 6HR PCP:  0.03;

FLORENCE       CLOUDY    45  43  93 NE7       30.14S
6HR MIN TEMP:  45; 6HR MAX TEMP:  48; 6HR PCP:  0.02;

MYRTLE BEACH   CLOUDY    54  45  71 E12       30.14F
N MYRTLE BEACH LGT RAIN  48  43  82 E8        30.12F
6HR MIN TEMP:  48; 6HR MAX TEMP:  51; 6HR PCP: TRACE;


$$

GAZ063-065-086>088-099>101-113>116-118-119-134>141-150-050100-
...SOUTHEAST GEORGIA...

CITY           SKY/WX    TMP DP  RH WIND       PRES   REMARKS
SAVANNAH ARPT  CLOUDY    62  55  77 E6        30.03S
6HR MIN TEMP:  61; 6HR MAX TEMP:  64; 6HR PCP: TRACE;

HUNTER AAF     CLOUDY    63  63 100 NE3       30.01R
6HR MIN TEMP:  62; 6HR MAX TEMP:  64; 6HR PCP: TRACE;

FORT STEWART   CLOUDY    63  57  80 CALM      30.01R
6HR MIN TEMP:  63; 6HR MAX TEMP:  65; 6HR PCP: TRACE;

STATESBORO     CLOUDY    56  50  80 E5        30.03F
SYLVANIA       CLOUDY   N/A N/A N/A E6        30.05F
CLAXTON        CLOUDY    60  57  91 NE6       30.03F

...CSRA...CENTRAL AND FAR SOUTHEAST GEORGIA...

CITY           SKY/WX    TMP DP  RH WIND       PRES   REMARKS
THOMSON        CLOUDY    47  47 100 CALM      30.11F
AUGUSTA-BUSH   LGT RAIN  48  45  89 NE5       30.07S FOG
6HR MIN TEMP:  48; 6HR MAX TEMP:  53; 6HR PCP:  0.40;

AUGUSTA-DANIEL LGT RAIN  47  43  86 NE7       30.07F
SWAINSBORO     CLOUDY    52  46  82 NE5       30.03F
VIDALIA        CLOUDY    63  59  88 E6        30.01S
EASTMAN        CLOUDY    56  41  57 NE3       30.03R
HAZLEHURST     FAIR      65  61  86 E5        29.99S
ALMA           CLOUDY    66  62  87 E3        29.99S
6HR MIN TEMP:  66; 6HR MAX TEMP:  70;

WAYCROSS       MOCLDY    72  66  83 SE8       30.00R
JESUP          CLOUDY    64  64 100 E3        30.01S
BAXLEY         MOCLDY    64  64 100 E5        29.99S
BRUNSWICK      CLEAR     68  64  88 S9        30.01F
SAINT SIMONS   CLEAR     67  63  87 SE8       30.01F
6HR MIN TEMP:  66; 6HR MAX TEMP:  70;


$$

SCZ027-028-034-036>038-045-046-048>050-GAZ119-141-050100-
...LAKE AND SUPPLEMENTAL COASTAL OBSERVATIONS...

STATION/POSITION TIME  TEMP    WIND        PRES    WAVE   SWELL
                       AIR SEA DIR/SP/G            HT/PER HT/PER/DIR
                 (UTC) (F)     (DEG/KT/KT) (MB)    (FT/S) (FT/S/D)
WINYAH BAY       2345   56      80/ 13     1019.0F
LAKE MURRAY      2350   45      50/  3/  7 1018.6F
ACE BASIN NERRS  2345   58      50/  5     1017.0F
FORT PULASKI     0000   64 62   80/  5/  6 1017.2
SAPELO ISLAND    0000   68     140/  9     1016.0

$$

ANZ835-935-AMZ111-154-330-350-352-354-370-450-454-472-050100-
...C-MAN AND BUOY OBSERVATIONS...

STATION/POSITION TIME  TEMP    WIND        PRES    WAVE   SWELL
                       AIR SEA DIR/SP/G            HT/PER HT/PER/DIR
                 (UTC) (F)     (DEG/KT/KT) (MB)    (FT/S) (FT/S/D)
BUOY 41004       2350   71 75  130/ 16/ 17 1017.8F   3/ 5   2/100/ 8
BUOY 41008       2350   68 65  130/ 10/ 12 1016.3S   4/ 5   2/100/ 8
FOLLY BEACH CMAN 0000   60      50/ 17/ 20 1018.2F
CAPERS NEARSHORE 2308   60 61   70/ 19/ 27 1018.1F
FRIPP NEARSHORE  0008   63 62   50/  8/ 10 1016.9F


STATION/POSITION TIME  TEMP    WIND        PRES    WAVE   SWELL
                       AIR SEA DIR/SP/G            HT/PER HT/PER/DIR
                 (UTC) (F)     (DEG/KT/KT) (MB)    (FT/S) (FT/S/D)
5E ST. MARYS GA  0000      66                N/A     3/ 5
FRYING PAN BUOY  0000   64 74   80/ 17/ 23 1020.1
BUOY 41025       2350   57 75   50/  8/ 10 1022.3F   3/ 8   3/ 30/ 8
CAPE LOOKOUT NC  0000   53      40/ 13/ 15 1021.6F
BUOY 41002       2350   66 73   90/  4/  8 1021.9R   4/ 9   3/ 10/ 9
BUOY 41010       NOT AVBL
ST AUGUSTINE FL  0000   70 68  150/ 15/ 16 1017.4R


$$




USA.gov is the U.S. government's official web portal to all federal, state and local government web resources and services.